TimeEST,TemperatureF,Dew PointF,Humidity,Sea Level PressureIn,VisibilityMPH,Wind Direction,Wind SpeedMPH,Gust SpeedMPH,PrecipitationIn,Events,Conditions,WindDirDegrees,DateUTC
12:53 AM,35.1,30.9,85,30.15,10.0,North,5.8,-,N/A,,Overcast,10,2012-12-09 05:53:00
1:06 AM,35.6,30.2,81,30.12,10.0,NNE,5.8,-,N/A,,Overcast,20,2012-12-09 06:06:00
1:53 AM,35.1,30.0,82,30.15,10.0,NE,10.4,-,N/A,,Overcast,40,2012-12-09 06:53:00
2:53 AM,35.1,28.9,78,30.17,10.0,NE,10.4,-,N/A,,Overcast,40,2012-12-09 07:53:00
3:53 AM,34.0,28.0,79,30.17,10.0,NE,6.9,-,N/A,,Overcast,50,2012-12-09 08:53:00
4:53 AM,33.1,28.0,82,30.16,10.0,ENE,5.8,-,N/A,,Overcast,60,2012-12-09 09:53:00
5:35 AM,33.8,28.4,81,30.14,10.0,East,4.6,-,N/A,,Partly Cloudy,80,2012-12-09 10:35:00
5:53 AM,33.1,28.0,82,30.19,10.0,ENE,3.5,-,N/A,,Clear,70,2012-12-09 10:53:00
6:53 AM,32.0,28.0,85,30.17,10.0,NE,6.9,-,N/A,,Partly Cloudy,50,2012-12-09 11:53:00
7:53 AM,33.1,28.0,82,30.16,10.0,ENE,9.2,-,N/A,,Mostly Cloudy,60,2012-12-09 12:53:00
8:53 AM,33.1,28.9,85,30.17,10.0,East,4.6,-,N/A,,Overcast,80,2012-12-09 13:53:00
9:53 AM,36.0,28.9,76,30.15,10.0,East,8.1,-,N/A,,Overcast,90,2012-12-09 14:53:00
10:53 AM,39.0,30.0,70,30.12,10.0,Variable,4.6,-,N/A,,Overcast,0,2012-12-09 15:53:00
11:37 AM,39.2,30.2,70,30.04,10.0,ESE,8.1,-,N/A,,Overcast,110,2012-12-09 16:37:00
11:53 AM,39.9,30.9,70,30.06,10.0,ESE,11.5,19.6,N/A,,Overcast,110,2012-12-09 16:53:00
12:53 PM,42.1,33.1,70,30.02,10.0,Variable,5.8,16.1,N/A,,Overcast,0,2012-12-09 17:53:00
1:16 PM,42.8,33.8,70,29.98,10.0,Variable,5.8,-,N/A,,Overcast,0,2012-12-09 18:16:00
1:53 PM,43.0,35.1,74,30.01,10.0,Variable,5.8,-,N/A,,Overcast,0,2012-12-09 18:53:00
2:53 PM,43.0,37.0,80,29.97,10.0,Variable,5.8,-,N/A,,Overcast,0,2012-12-09 19:53:00
3:34 PM,42.8,37.4,81,29.93,10.0,Variable,5.8,-,N/A,,Overcast,0,2012-12-09 20:34:00
3:53 PM,43.0,37.0,80,29.95,10.0,Variable,5.8,17.3,0.00,Rain,Light Rain,0,2012-12-09 20:53:00
4:53 PM,42.1,37.9,85,29.91,10.0,Variable,6.9,-,0.01,Rain,Light Rain,0,2012-12-09 21:53:00
5:17 PM,42.8,39.2,87,29.87,10.0,Variable,5.8,-,0.01,Rain,Light Rain,0,2012-12-09 22:17:00
5:53 PM,43.0,39.9,89,29.88,10.0,Variable,4.6,-,0.01,,Overcast,0,2012-12-09 22:53:00
6:53 PM,44.1,42.1,93,29.86,6.0,Variable,5.8,-,0.06,Rain,Light Rain,0,2012-12-09 23:53:00
7:53 PM,46.0,44.1,93,29.84,10.0,SSE,4.6,-,0.01,,Overcast,150,2012-12-10 00:53:00
8:53 PM,48.0,46.0,93,29.81,6.0,Variable,5.8,-,0.01,Rain,Light Rain,0,2012-12-10 01:53:00
9:53 PM,48.9,46.9,93,29.79,5.0,Variable,6.9,-,0.00,,Overcast,0,2012-12-10 02:53:00
10:16 PM,50.0,48.2,94,29.76,1.8,Variable,3.5,-,0.06,Rain,Rain,0,2012-12-10 03:16:00
10:25 PM,50.0,48.2,94,29.76,3.0,Variable,5.8,-,0.08,Rain,Light Rain,0,2012-12-10 03:25:00
10:53 PM,50.0,48.9,96,29.76,3.0,Variable,3.5,-,0.09,Rain,Light Rain,0,2012-12-10 03:53:00
11:53 PM,52.0,50.0,93,29.72,6.0,SSE,8.1,-,0.01,,Overcast,160,2012-12-10 04:53:00